User: anonymous   Login
Location: Buttermere
(51.3333°N, 1.5167°W)
Time: 01:56:17
(UTC+00:00)
Language:

CZ-4C R/B - Orbit

View from above orbital plane
View from above orbital plane
View from above satellite
View from above satellite

Ground track
Ground track

The orbit data is extracted from the following two-line orbital elements,

1 36416U 10009D   20328.58658187 -.00000064 +00000-0 +21136-4 0  9991
2 36416 063.4210 133.0971 0510583 355.3931 004.2499 13.69578917536146
Epoch (UTC): 23 November 2020 14:04:40
Eccentricity: 0.0510583
inclination: 63.4210°
perigee height: 624 km
apogee height: 1378 km
right ascension of ascending node: 133.0971°
argument of perigee: 355.3931°
revolutions per day: 13.69578917
mean anomaly at epoch: 4.2499°
orbit number at epoch: 53614

The dashed part of the orbit path shows where the satellite is in the earth's shadow,  

DLR